Station MGPT2 - 8770613 - Morgans Point, TX Image indicating link to RSS feed of recent meteorological observations for station MGPT2


Conditions at MGPT2 as of
(6:18 pm CDT)
2318 GMT on 06/21/2024:
     

Click on the graph icon in the table below to see a time series plot of the last five days of that observation.

5-day plot - Wind Direction Wind Direction (WDIR): E ( 100 deg true )
5-day plot - Wind Speed Wind Speed (WSPD): 8.0 kts
5-day plot - Wind Gust Wind Gust (GST): 13.0 kts
5-day plot - Atmospheric Pressure Atmospheric Pressure (PRES):30.02 in
5-day plot - Water Temperature Water Temperature (WTMP): 85.3 °F
5-day plot - Wind Speed at 10 Meters Wind Speed at 10 meters (WSPD10M): 9.7 kts
5-day plot - Wind Speed at 20 Meters Wind Speed at 20 meters (WSPD20M): 9.7 kts
5-day plot -  Wind Speed, Wind Gust and Atmospheric Pressure Combined plot of Wind Speed, Gust, and Air Pressure
Previous observations
TIME
(CDT)
5-day plot - Wind Direction
WDIR
 
5-day plot - Wind Speed
WSPD
kts
5-day plot - Wind Gust
GST
kts
5-day plot - Wave Height
WVHT
ft
5-day plot - Dominant Wave Period
DPD
sec
5-day plot - Average Wave Period
APD
sec
5-day plot - Mean Wave Direction
MWD
 
5-day plot - Atmospheric Pressure
PRES
in
5-day plot - Pressure Tendency
PTDY
in
5-day plot - Air Temperature
ATMP
°F
5-day plot - Water Temperature
WTMP
°F
5-day plot - Dew Point
DEWP
°F
5-day plot - Salinity
SAL
psu
5-day plot - Visibility
VIS
nmi
5-day plot - Tide (above MLLW)
TIDE
ft
2024-06-21 06:12 pm E 9.9 14.0----30.02-- 85.3----
2024-06-21 06:06 pm E 8.9 13.0----30.02-- 85.1----
2024-06-21 06:00 pm E 8.0 13.0----30.02-0.04 86.5 85.1----
2024-06-21 05:54 pm E 9.9 13.0----30.02- 86.2 85.1----
2024-06-21 05:48 pm-------30.02- 86.5 85.1----
2024-06-21 05:42 pm-------30.02- 86.4 85.1----
2024-06-21 05:36 pm-------30.02- 86.7 84.9----
2024-06-21 05:30 pm E 8.9 14.0----30.03- 86.5 84.9----
2024-06-21 05:24 pm E 9.9 13.0----30.03- 86.5 84.9----
2024-06-21 05:18 pm E 8.9 14.0----30.03- 86.5 84.9----
2024-06-21 05:12 pm E 9.9 14.0----30.03- 86.0 84.9----
2024-06-21 05:06 pm E 9.9 18.1----30.03- 86.4 84.9----
2024-06-21 05:00 pm E 8.9 17.1----30.03-0.04 86.4 84.9----
2024-06-21 04:54 pm E 11.1 19.0----30.03- 86.0 84.9----
2024-06-21 04:48 pm E 13.0 20.0----30.03- 86.0 84.9----
2024-06-21 04:42 pm E 9.9 14.0----30.03- 86.5 84.9----
2024-06-21 04:36 pm E 9.9 15.0----30.04- 86.7 84.9----
2024-06-21 04:30 pmESE 14.0 18.1----30.04- 86.4 84.9----
2024-06-21 04:24 pmESE 13.0 19.0----30.05- 86.2 84.9----
2024-06-21 04:18 pmESE 14.0 20.0----30.05- 86.2 84.9----
2024-06-21 04:12 pm E 12.0 14.0----30.05- 86.4 84.9----
2024-06-21 04:06 pm E 9.9 15.0----30.05- 86.0 84.9----
2024-06-21 04:00 pm E 8.9 12.0----30.05-0.04 86.7 85.1----
2024-06-21 03:54 pmESE 13.0 19.0----30.05- 85.6 85.1----
2024-06-21 03:48 pmESE 13.0 19.0----30.06- 85.5 85.1----
2024-06-21 03:42 pm E 11.1 15.0----30.05- 85.3 85.1----
2024-06-21 03:36 pm E 9.9 14.0----30.06- 85.3 85.3----
2024-06-21 03:30 pm E 8.0 15.9----30.06- 84.4 85.3----
2024-06-21 03:24 pmESE 11.1 17.1----30.06- 82.9 85.3----
2024-06-21 03:18 pmESE 17.1 19.0----30.06- 86.7 85.3----
2024-06-21 03:12 pm E 9.9 19.0----30.06- 87.3 85.3----
2024-06-21 03:06 pm E 12.0 19.0----30.06- 87.3 85.3----
2024-06-21 03:00 pm E 9.9 17.1----30.06-0.04 87.8 85.3----
2024-06-21 02:54 pmESE 12.0 17.1----30.06- 87.3 85.3----
2024-06-21 02:48 pmESE 15.0 17.1----30.06- 87.1 85.3----
2024-06-21 02:42 pm E 9.9 13.0----30.06- 88.3 85.1----
2024-06-21 02:36 pm E 8.9 13.0----30.07- 88.7 85.3----
2024-06-21 02:30 pm E 7.0 12.0----30.07- 88.7 85.3----
2024-06-21 02:24 pm E 8.0 15.0----30.07- 88.2 85.1----
2024-06-21 02:18 pm E 7.0 13.0----30.07-- 85.1----
2024-06-21 02:12 pmESE 12.0 14.0----30.07- 87.6 85.1----
2024-06-21 02:06 pm E 8.0 13.0----30.07- 89.1 85.1----
2024-06-21 02:00 pm E 8.0 11.1----30.08-0.02 88.7 85.1----
2024-06-21 01:54 pm E 8.0 12.0----30.08- 88.9 85.1----
2024-06-21 01:48 pm E 8.0 13.0----30.08- 88.3 85.1----
2024-06-21 01:42 pm E 8.0 13.0----30.08- 88.7 84.9----
2024-06-21 01:36 pm E 7.0 12.0----30.08- 88.7 84.9----
2024-06-21 01:30 pm E 8.0 13.0----30.09- 88.2 84.9----
2024-06-21 01:24 pm E 8.9 14.0----30.09- 88.3 84.9----
2024-06-21 01:18 pm E 8.9 12.0----30.09- 88.5 84.9----
2024-06-21 01:12 pm E 7.0 11.1----30.09- 87.8 84.9----
2024-06-21 01:06 pm E 7.0 11.1----30.09- 86.7 84.9----
2024-06-21 01:00 pm E 7.0 12.0----30.09+0.00 88.2 84.9----
2024-06-21 12:54 pmENE 8.9 13.0----30.09- 86.9 84.7----
2024-06-21 12:48 pm E 8.0 13.0----30.09- 85.5 84.7----
2024-06-21 12:42 pmENE 8.9 12.0----30.10- 85.1 84.7----
2024-06-21 12:36 pmENE 8.0 11.1----30.10- 85.3 84.7----
2024-06-21 12:30 pmENE 8.9 12.0----30.10- 85.5 84.7----
2024-06-21 12:24 pmENE 11.1 15.0----30.10- 86.5 84.7----
2024-06-21 12:18 pmENE 11.1 13.0----30.10- 86.4 84.7----
2024-06-21 12:12 pm E 7.0 12.0----30.10- 85.8 84.7----
2024-06-21 12:06 pmENE 9.9 12.0----30.10- 85.8 84.7----
2024-06-21 12:00 pmENE 11.1 14.0----30.11+0.02 84.7 84.7----
2024-06-21 11:54 amENE 9.9 12.0----30.11- 85.6 84.7----
2024-06-21 11:48 am NE 11.1 13.0----30.11- 84.4 84.7----
2024-06-21 11:42 amENE 7.0 11.1----30.11- 84.9 84.7----
2024-06-21 11:36 amENE 8.9 13.0----30.10- 85.6 84.7----
2024-06-21 11:30 am NE 11.1 13.0----30.10- 84.4 84.7----
2024-06-21 11:24 amENE 7.0 12.0----30.10- 84.7 84.6----
2024-06-21 11:18 am NE 8.0 11.1----30.10- 85.3 84.6----
2024-06-21 11:12 am NE 8.0 12.0----30.10- 84.2 84.6----
2024-06-21 11:06 am NE 8.9 12.0----30.09- 84.4 84.6----
2024-06-21 11:00 am NE 11.1 15.0----30.10+0.02 84.2 84.6----
2024-06-21 10:54 amENE 9.9 12.0----30.10- 84.0 84.6----
2024-06-21 10:48 amENE 9.9 13.0----30.09-- 84.6----
2024-06-21 10:42 amENE 9.9 14.0----30.10- 83.3 84.6----
2024-06-21 10:36 am NE 8.9 12.0----30.10- 83.3 84.6----
2024-06-21 10:30 am NE 8.9 13.0----30.10- 83.8 84.6----
2024-06-21 10:24 amENE 8.9 15.0----30.10- 83.7 84.6----
2024-06-21 10:18 amENE 9.9 13.0----30.10- 83.5 84.4----
2024-06-21 10:12 amENE 11.1 13.0----30.09- 82.9 84.4----
2024-06-21 10:06 amENE 12.0 14.0----30.10- 82.8 84.4----
2024-06-21 10:00 am NE 9.9 14.0----30.09+0.03 82.9 84.4----
2024-06-21 09:54 am NE 9.9 13.0----30.09- 82.8 84.4----
2024-06-21 09:48 amENE 11.1 13.0----30.09- 82.2 84.4----
2024-06-21 09:42 am NE 11.1 15.0----30.09- 82.4 84.4----
2024-06-21 09:36 amENE 11.1 15.0----30.09- 82.0 84.4----
2024-06-21 09:30 am NE 9.9 13.0----30.09- 82.0 84.4----
2024-06-21 09:24 am NE 11.1 14.0----30.09- 82.0 84.4----
2024-06-21 09:18 am NE 12.0 14.0----30.09- 81.9 84.4----
2024-06-21 09:12 am NE 9.9 15.0----30.09- 81.5 84.4----
2024-06-21 09:06 am NE 12.0 14.0----30.09- 81.1 84.4----
2024-06-21 09:00 am NE 11.1 15.0----30.09+0.03 81.0 84.4----
2024-06-21 08:54 am NE 11.1 14.0----30.09- 81.0 84.4----
2024-06-21 08:48 am NE 8.9 13.0----30.08- 80.8 84.2----
2024-06-21 08:42 am NE 9.9 13.0----30.08- 80.8 84.2----
2024-06-21 08:36 am NE 9.9 14.0----30.08- 80.6 84.2----
2024-06-21 08:30 am NE 11.1 14.0----30.08- 79.9 84.2----
2024-06-21 08:24 am NE 12.0 15.0----30.08- 79.9 84.2----
2024-06-21 08:18 am NE 12.0 14.0----30.07- 79.5 84.2----
2024-06-21 08:12 am NE 12.0 14.0----30.07- 79.5 84.2----
2024-06-21 08:06 am NE 11.1 13.0----30.07- 79.3 84.4----
2024-06-21 08:00 am NE 9.9 12.0----30.07+0.02 79.3 84.4----
2024-06-21 07:54 am NE 9.9 12.0----30.07- 78.8 84.4----
2024-06-21 07:48 am NE 9.9 12.0----30.07- 78.8 84.4----
2024-06-21 07:42 am NE 11.1 12.0----30.07- 78.6 84.4----
2024-06-21 07:36 am NE 8.9 12.0----30.07- 78.6 84.4----
2024-06-21 07:30 am NE 9.9 11.1----30.07- 78.4 84.4----
2024-06-21 07:24 am NE 8.0 8.9----30.07- 78.4 84.4----
2024-06-21 07:18 am NE 8.9 11.1----30.07- 78.3 84.4----
2024-06-21 07:12 am NE 7.0 8.9----30.07- 77.9 84.4----
2024-06-21 07:06 amNNE 6.0 7.0----30.07- 77.7 84.4----
2024-06-21 07:00 amNNE 7.0 8.0----30.06+0.01 77.4 84.4----
2024-06-21 06:54 amNNE 6.0 8.9----30.06- 77.2 84.4----
2024-06-21 06:48 amNNE 7.0 8.9----30.06- 77.2 84.4----
2024-06-21 06:42 amNNE 8.0 8.9----30.06- 77.2 84.4----
2024-06-21 06:36 am NE 7.0 8.0----30.06- 77.0 84.4----
2024-06-21 06:30 amNNE 5.1 8.0----30.06- 76.8 84.6----
2024-06-21 06:24 amNNE 6.0 8.9----30.06- 77.0 84.6----
2024-06-21 06:18 amNNE 7.0 8.9----30.06- 77.0 84.6----
2024-06-21 06:12 am NE 7.0 9.9----30.06- 77.2 84.6----
2024-06-21 06:06 am NE 8.0 11.1----30.06- 77.0 84.6----
2024-06-21 06:00 am NE 8.0 11.1----30.06+0.00 77.4 84.6----
2024-06-21 05:54 am NE 8.0 11.1----30.06- 77.4 84.6----
2024-06-21 05:48 am NE 8.0 9.9----30.05- 77.5 84.6----
2024-06-21 05:42 am NE 8.0 12.0----30.05- 77.5 84.6----
2024-06-21 05:36 am NE 8.0 11.1----30.06- 77.4 84.6----
2024-06-21 05:30 am NE 6.0 8.9----30.05- 77.2 84.6----
2024-06-21 05:24 am NE 7.0 8.9----30.05- 77.2 84.6----
2024-06-21 05:18 am NE 8.0 9.9----30.05- 77.4 84.7----
2024-06-21 05:12 am NE 8.0 9.9----30.05- 77.5 84.7----
2024-06-21 05:06 am NE 7.0 11.1----30.05- 77.5 84.7----
2024-06-21 05:00 amNNE 8.0 9.9----30.05-0.02 77.4 84.7----
2024-06-21 04:54 amNNE 8.0 9.9----30.05- 77.4 84.7----
2024-06-21 04:48 amNNE 8.0 9.9----30.05- 77.5 84.7----
2024-06-21 04:42 amNNE 7.0 8.0----30.05- 77.5 84.7----
2024-06-21 04:36 amNNE 5.1 7.0----30.05- 77.7 84.7----
2024-06-21 04:30 amNNE 6.0 8.0----30.05- 77.9 84.7----
2024-06-21 04:24 amNNE 7.0 8.0----30.05- 77.7 84.7----
2024-06-21 04:18 amNNE 7.0 8.0----30.05- 77.9 84.7----
2024-06-21 04:12 amNNE 6.0 7.0----30.05- 78.1 84.7----
2024-06-21 04:06 amNNE 5.1 7.0----30.05- 78.4 84.7----
2024-06-21 04:00 am NE 6.0 8.0----30.05-0.03 78.8 84.7----
2024-06-21 03:54 am NE 6.0 8.9----30.05- 79.0 84.7----
2024-06-21 03:48 amENE 6.0 8.9----30.05- 79.2 84.7----
2024-06-21 03:42 am NE 8.0 9.9----30.05- 79.0 84.7----
2024-06-21 03:36 am NE 7.0 8.9----30.05- 79.0 84.7----
2024-06-21 03:30 am NE 7.0 8.9----30.05- 79.2 84.7----
2024-06-21 03:24 am NE 7.0 8.0----30.05- 79.3 84.7----
2024-06-21 03:18 am NE 7.0 8.9----30.05- 79.3 84.7----
2024-06-21 03:12 am NE 7.0 8.0----30.05- 79.3 84.7----
2024-06-21 03:06 am NE 6.0 8.0----30.05- 79.3 84.7----
2024-06-21 03:00 amENE 6.0 8.9----30.05-0.03 79.7 84.7----
2024-06-21 02:54 amENE 8.0 9.9----30.05- 79.7 84.7----
2024-06-21 02:48 am NE 7.0 9.9----30.05-- 84.7----
2024-06-21 02:42 am NE 7.0 8.9----30.06- 79.5 84.7----
2024-06-21 02:36 amENE 7.0 8.9----30.06- 79.7 84.7----
2024-06-21 02:30 amENE 8.9 11.1----30.06- 80.1 84.7----
2024-06-21 02:24 amENE 8.9 9.9----30.06- 80.1 84.7----
2024-06-21 02:18 amENE 7.0 9.9----30.06- 80.1 84.7----
2024-06-21 02:12 amENE 7.0 9.9----30.07- 80.2 84.7----
2024-06-21 02:06 am E 7.0 9.9----30.07- 80.4 84.7----
2024-06-21 02:00 am E 6.0 11.1----30.07+0.00 80.2 84.7----
2024-06-21 01:54 am E 8.9 11.1----30.07- 80.2 84.7----
2024-06-21 01:48 am E 8.0 11.1----30.07- 80.2 84.7----
2024-06-21 01:42 amENE 8.0 12.0----30.07- 80.1 84.7----
2024-06-21 01:36 amENE 8.9 9.9----30.07- 80.1 84.7----
2024-06-21 01:30 amENE 6.0 9.9----30.08- 79.9 84.7----
2024-06-21 01:24 amENE 8.0 11.1----30.08- 80.1 84.7----
2024-06-21 01:18 amENE 8.9 12.0----30.08- 80.2 84.7----
2024-06-21 01:12 am E 7.0 12.0----30.08- 80.2 84.7----
2024-06-21 01:06 am E 8.0 13.0----30.08- 80.2 84.7----
2024-06-21 01:00 am E 8.9 12.0----30.08+0.01 80.4 84.7----
2024-06-21 12:54 amENE 9.9 12.0----30.08- 80.2 84.7----
2024-06-21 12:48 amENE 9.9 12.0----30.08- 80.2 84.7----
2024-06-21 12:42 amENE 8.9 12.0----30.08- 80.2 84.7----
2024-06-21 12:36 amENE 8.0 12.0----30.08- 80.4 84.7----
2024-06-21 12:30 amENE 8.9 12.0----30.09- 80.4 84.7----
2024-06-21 12:24 am E 8.9 12.0----30.09- 80.4 84.7----
2024-06-21 12:18 am E 8.9 11.1----30.08-- 84.9----
2024-06-21 12:12 am E 9.9 13.0----30.09- 80.4 84.9----
2024-06-21 12:06 am E 7.0 14.0----30.09- 80.6 84.9----
2024-06-21 12:00 amENE 8.0 12.0----30.08+0.03 80.6 84.9----
2024-06-20 11:54 pmENE 9.9 12.0----30.08- 80.6 84.9----
2024-06-20 11:48 pmENE 8.0 11.1----30.08- 80.4 84.9----
2024-06-20 11:42 pmENE 8.0 12.0----30.08- 80.4 84.9----
2024-06-20 11:36 pm E 9.9 12.0----30.08- 80.6 84.9----
2024-06-20 11:30 pmENE 8.0 12.0----30.08- 80.6 84.9----
2024-06-20 11:24 pmENE 9.9 14.0----30.08- 80.6 84.9----
2024-06-20 11:18 pm E 9.9 14.0----30.08-- 84.9----
2024-06-20 11:12 pmENE 8.0 13.0----30.08- 80.6 84.9----
2024-06-20 11:06 pm E 12.0 14.0----30.08- 80.6 84.9----
2024-06-20 11:00 pmENE 8.9 14.0----30.08+0.04 80.8 84.9----
2024-06-20 10:54 pmENE 9.9 15.0----30.08- 80.8 84.9----
2024-06-20 10:48 pm E 12.0 15.0----30.08-- 84.9----
2024-06-20 10:42 pm E 8.9 15.0----30.07- 80.8 84.9----
2024-06-20 10:36 pmENE 9.9 15.0----30.07- 80.8 84.9----
2024-06-20 10:30 pmENE 13.0 15.9----30.07- 81.0 84.9----
2024-06-20 10:24 pmENE 12.0 14.0----30.07- 81.0 84.9----
2024-06-20 10:18 pmENE 11.1 14.0----30.07-- 84.9----
2024-06-20 10:12 pmENE 12.0 15.0----30.07- 81.0 84.9----
2024-06-20 10:06 pm E 9.9 15.0----30.07- 81.1 84.9----
2024-06-20 10:00 pm E 11.1 15.0----30.06+0.03 81.1 84.9----
2024-06-20 09:54 pmENE 8.0 13.0----30.06- 81.3 84.9----
2024-06-20 09:48 pmENE 8.9 15.0----30.06- 81.3 85.1----
2024-06-20 09:42 pmENE 9.9 13.0----30.06- 81.5 85.1----
2024-06-20 09:36 pmENE 11.1 15.0----30.06- 81.7 85.1----
2024-06-20 09:30 pmENE 9.9 14.0----30.06- 81.7 85.1----
2024-06-20 09:24 pmENE 9.9 15.0----30.06- 81.7 85.1----
2024-06-20 09:18 pmENE 8.9 13.0----30.06-- 85.1----
2024-06-20 09:12 pmENE 11.1 13.0----30.06- 82.0 85.1----
2024-06-20 09:06 pmENE 12.0 14.0----30.05- 82.2 85.1----
2024-06-20 09:00 pmENE 11.1 14.0----30.05+0.02 82.4 85.1----
2024-06-20 08:54 pm E 11.1 14.0----30.05- 82.6 85.3----
2024-06-20 08:48 pm E 6.0 13.0----30.05- 82.8 85.3----
2024-06-20 08:42 pm E 7.0 13.0----30.05- 82.8 85.3----
2024-06-20 08:36 pm E 8.9 14.0----30.04- 82.9 85.3----
2024-06-20 08:30 pm E 8.0 15.0----30.04- 83.1 85.3----
2024-06-20 08:24 pm E 12.0 17.1----30.04- 83.1 85.3----
2024-06-20 08:18 pm E 8.9 14.0----30.04-- 85.3----
2024-06-20 08:12 pm E 8.0 14.0----30.04- 83.5 85.3----
2024-06-20 08:06 pm E 9.9 18.1----30.04- 83.7 85.3----
2024-06-20 08:00 pm E 6.0 13.0----30.04+0.01 84.0 85.3----
2024-06-20 07:54 pm E 7.0 12.0----30.04- 84.2 85.3----
2024-06-20 07:48 pm E 8.0 14.0----30.04-- 85.3----
2024-06-20 07:42 pm E 8.9 14.0----30.04- 84.7 85.3----
2024-06-20 07:36 pm E 8.0 12.0----30.03- 84.9 85.3----
2024-06-20 07:30 pm E 8.0 11.1----30.03- 85.1 85.3----
2024-06-20 07:24 pm E 8.0 13.0----30.03- 85.3 85.3----
2024-06-20 07:18 pm E 8.0 12.0----30.03- 85.5 85.3----
2024-06-20 07:12 pm E 8.9 12.0----30.03- 85.6 85.3----
2024-06-20 07:06 pm E 8.9 14.0----30.03- 85.3 85.3----
2024-06-20 07:00 pm E 8.9 13.0----30.03-0.01 85.3 85.3----
2024-06-20 06:54 pm E 9.9 14.0----30.03- 85.3 85.5----